Location: Windsor
(43.2292°N, 89.3015°W)
Time: 10:40:48
(UTC+00:00)

Tiros 1 - Pass Details

Date: 02 June 2022
Orbit: 629 x 663 km, 48.4° (Epoch: 04 July)

Event Time Altitude Azimuth Distance (km) Brightness Sun altitude
Rises 08:39:40 0° 294° (WNW) 2,922 10.4 -14.4°
Reaches altitude 10° 08:41:59 10° 296° (WNW) 2,016 9.6 -14.2°
Maximum altitude 08:46:38 75° 22° (NNE) 662 7.3 -13.6°
Drops below altitude 10° 08:51:18 10° 108° (ESE) 2,029 10.0 -13.1°
Sets 08:53:39 0° 110° (ESE) 2,943 10.8 -12.8°
